weather.gov     
National Weather Service

Weather Roundup
NWS Homepage
This page is being discontinued on March 12, 2014.
The same data is available at this site. Please update your bookmarks.
Thank you, and we apologize for the inconvenience.
Please send an email to SR-SRH.Webmaster@noaa.gov with any concerns.


Current Version
Previous Version:    01  02  03  04  05  06  07  08  09  10  11  12  13  14  15  16  17  18  19  20  21  22  23  24  25  26  27  28  29  30  
   31  32  33  34  35  36  37  38  39  40  41  42  43  44  45  46  47  48  49  50  51  52  53  54  55  56  57  58  59  60  
[Printable]
603
NZUS99 KSGF 310107
HRRSGF

HOURLY WEATHER
NATIONAL WEATHER SERVICE SPRINGFIELD MO
800 PM CDT WED JUL 30 2014

......SGF CWA......

CITY           SKY/WX    TMP DP  RH WIND       PRES   REMARKS
SPRINGFIELD    LGT RAIN  67  65  93 S5        30.09S
JOPLIN         LGT RAIN  66  65  96 NE6       30.08S FOG
WEST PLAINS    CLOUDY    67  64  90 NW3       30.10S
ROLLA          CLOUDY    70  61  73 SW5       30.06S
OSAGE BEACH    CLOUDY    70  64  83 CALM      30.07S
BRANSON        CLOUDY    64  64 100 CALM      30.10F

......SURROUNDING SGF CWA......

CITY           SKY/WX    TMP DP  RH WIND       PRES   REMARKS
CHANUTE        CLOUDY    69  65  86 E3        30.09R
PARSONS        LGT RAIN  68  65  90 CALM      30.08S
COFFEYVILLE    LGT RAIN  68  67  96 NE7       30.06S
EMPORIA        MOCLDY    71  61  70 NE5       30.10R
GROVE OK       RAIN      68  68 100 E8        30.07F
ROGERS AR      RAIN      65  63  93 E9        30.09F VSB 3/4
SILOAM SPRINGS CLOUDY    64  59  82 E6        30.08S
HARRISON AR    LGT RAIN  66  65  96 CALM      30.09F
NEAR YELLVILLE CLOUDY    68  66  94 CALM      30.08S

......KANSAS AND MISSOURI......

CITY           SKY/WX    TMP DP  RH WIND       PRES   REMARKS
KANSAS CTY INT MOCLDY    76  59  55 N6        30.08S
DOWNTOWN KC    MOCLDY    78  57  48 E6        30.06S
COLUMBIA       MOCLDY    75  60  59 SW8       30.06S
SEDALIA        CLOUDY    73  59  61 SW7       30.08R
ST JOSEPH      CLEAR     77  58  51 CALM      30.08R
ST LOUIS       MOCLDY    79  56  45 N6        30.04S
SPIRIT OF STL  CLOUDY    76  60  57 CALM      30.03S
KIRKSVILLE     PTCLDY    74  58  57 E3        30.08S
WICHITA        CLOUDY    69  65  86 NE12      30.09S
TOPEKA         PTCLDY    78  57  48 NE6       30.08S
OLATHE         MOCLDY    72  61  68 S3        30.08S

......TENNESSEE......

CITY           SKY/WX    TMP DP  RH WIND       PRES   REMARKS
MEMPHIS        CLOUDY    79  57  46 W5        30.06S
NASHVILLE      CLOUDY    76  55  48 N5        30.07S

......ARKANSAS.......

CITY           SKY/WX    TMP DP  RH WIND       PRES   REMARKS
FAYETTEVILLE   LGT RAIN  66  66 100 E6        30.07S
FT SMITH       LGT RAIN  71  69  93 E7        30.02F FOG
LITTLE ROCK    LGT RAIN  70  63  78 CALM      30.08F

......OKLAHOMA.......

CITY           SKY/WX    TMP DP  RH WIND       PRES   REMARKS
TULSA          RAIN      70  70 100 NE9       30.02S FOG
PONCA CITY     CLOUDY    70  67  90 NE9       30.04R
MCALESTER      LGT RAIN  71  69  93 E5        30.00S
OKLAHOMA CITY  LGT RAIN  70  66  88 N14       29.97R

......IOWA............

CITY           SKY/WX    TMP DP  RH WIND       PRES   REMARKS
DES MOINES     PTCLDY    77  54  44 N5        30.07R
QUAD CITIES    CLEAR     76  58  53 NW7       30.03S

......ILLINOIS........

CITY           SKY/WX    TMP DP  RH WIND       PRES   REMARKS
QUINCY         PTCLDY    74  60  61 CALM      30.06R
CHICAGO        PTCLDY    70  56  61 E6        30.01R





U.S. Dept. of Commerce
NOAA National Weather Service
1325 East West Highway
Silver Spring, MD 20910
E-mail: w-nws.webmaster@noaa.gov
Page last modified: May 16, 2007
NATIONAL WEATHER SERVICE: for Safety, for Work, for Fun - FOR LIFE